Location: Baia Mare
(47.6567°N, 23.5850°E)
Time: 03:45:55
(UTC+02:00)

ISS - Pass Details

Date: 21 September 2018
Orbit: 402 x 408 km, 51.6° (Epoch: 18 November)

Event Time Altitude Azimuth Distance (km) Brightness Sun altitude
Rises 20:29:25 0° 191° (S) 2,332 0.0 -11.4°
Reaches altitude 10° 20:32:27 10° 160° (SSE) 1,475 -1.3 -11.9°
Enters shadow 20:33:05 12° 150° (SSE) 1,385 -1.5 -12.0°
